Location: Unspecified
(0.0000°N, 0.0000°E)
Time: 23:52:33
(UTC+00:00)

ISS - Visible Passes

Search period start: 24 October 2014 00:00
Search period end: 03 November 2014 00:00
Orbit: 412 x 416 km, 51.6° (Epoch: 24 October)

Date Brightness Start Highest point End Pass type
(mag) Time Alt. Az. Time Alt. Az. Time Alt. Az.
30 Oct -2.7 19:05:03 10° NNW 19:07:32 47° NNW 19:07:32 47° NNW visible
31 Oct -2.3 18:16:07 10° N 18:18:59 27° NE 18:21:52 10° ESE visible
01 Nov -0.6 19:03:28 10° WNW 19:06:02 21° SW 19:08:35 10° S visible
02 Nov -2.3 18:13:21 10° NW 18:16:34 52° SW 18:19:48 10° SSE visible
